RYR9348 EDFH-GMAD

Flight info

Callsign RYR9348
Flight time N/A
Altitude 23000
Route IDARO9E IDARO Q760 SARRI Z818 MAKOT/N0446F350 G21 GTQ DCT POGOL DCT LASAT DCT MOROK DCT GILIR DCT NINTU DCT MEBAK DCT REPSI DCT LERGA DCT MINSO DCT NARAK DCT AGN DCT MAQAB DCT TIVLI DCT ELSAP DCT ZAR DCT EXEMU/N0441F370 DCT PISUS DCT EDIMU DCT ADUXO DCT NUSGO DCT OBIBO DCT NASOS L27 BLN DCT MGA DCT PIMOS DCT GALTO UN869 PELAX UB11 MAK UG850 OLOMA
Aircraft B738/M-SDE3FGILRWY/SB1

Departure

Time N/A
Airport Frankfurt-Hahn Airport (EDFH)

Arrival

Time 2026-04-20 13:25
Airport Al Massira Airport (GMAD)
Time Latitude Longitude Altitude Speed Heading
2026-04-20 12:39 33.39334 -7.28236 35888 ft 414 kts 217°
2026-04-20 12:40 33.36946 -7.30168 35888 ft 413 kts 217°
2026-04-20 12:40 33.32183 -7.34018 35891 ft 413 kts 217°
2026-04-20 12:41 33.27419 -7.37864 35889 ft 413 kts 217°
2026-04-20 12:41 33.22656 -7.41703 35897 ft 413 kts 217°
2026-04-20 12:42 33.17895 -7.45538 35893 ft 413 kts 217°
2026-04-20 12:42 33.13155 -7.49348 35894 ft 413 kts 217°
2026-04-20 12:43 33.08298 -7.53023 35893 ft 414 kts 213°
2026-04-20 12:43 33.03313 -7.56476 35900 ft 414 kts 213°
2026-04-20 12:44 32.98336 -7.59931 35892 ft 414 kts 213°
2026-04-20 12:44 32.93352 -7.63423 35896 ft 414 kts 213°
2026-04-20 12:45 32.88395 -7.66901 35891 ft 414 kts 214°
2026-04-20 12:45 32.83437 -7.70377 35894 ft 413 kts 214°
2026-04-20 12:46 32.78486 -7.73874 35896 ft 413 kts 214°
2026-04-20 12:46 32.73538 -7.77368 35894 ft 413 kts 214°
2026-04-20 12:47 32.68629 -7.80826 35898 ft 413 kts 214°
2026-04-20 12:47 32.63679 -7.84283 35881 ft 413 kts 214°
2026-04-20 12:48 32.58727 -7.87716 35896 ft 412 kts 214°
2026-04-20 12:48 32.53774 -7.91150 35894 ft 412 kts 214°
2026-04-20 12:49 32.48822 -7.94582 35894 ft 412 kts 214°
2026-04-20 12:49 32.43862 -7.98016 35893 ft 413 kts 214°
2026-04-20 12:50 32.38901 -8.01446 35890 ft 413 kts 214°
2026-04-20 12:50 32.33937 -8.04874 35874 ft 413 kts 214°
2026-04-20 12:51 32.28973 -8.08298 35888 ft 413 kts 214°
2026-04-20 12:51 32.24004 -8.11722 35889 ft 413 kts 214°
2026-04-20 12:52 32.19032 -8.15143 35896 ft 414 kts 214°
2026-04-20 12:52 32.13913 -8.18277 35880 ft 420 kts 201°
2026-04-20 12:52 32.11033 -8.18980 35898 ft 425 kts 190°
2026-04-20 12:53 32.08084 -8.19033 35725 ft 427 kts 178°
2026-04-20 12:53 32.05159 -8.18536 35465 ft 421 kts 175°
2026-04-20 12:53 32.02275 -8.17959 35053 ft 418 kts 175°
2026-04-20 12:53 31.99425 -8.17379 34699 ft 414 kts 175°
2026-04-20 12:54 31.96595 -8.16815 34323 ft 411 kts 175°
2026-04-20 12:54 31.93787 -8.16273 33956 ft 408 kts 175°
2026-04-20 12:54 31.90999 -8.15748 33537 ft 405 kts 175°
2026-04-20 12:54 31.88224 -8.15234 33144 ft 402 kts 175°
2026-04-20 12:55 31.85510 -8.14735 32769 ft 399 kts 175°
2026-04-20 12:55 31.82783 -8.14235 32398 ft 395 kts 175°
2026-04-20 12:55 31.80041 -8.13732 32016 ft 392 kts 175°
2026-04-20 12:55 31.77393 -8.13247 31671 ft 389 kts 175°
2026-04-20 12:56 31.74726 -8.12758 31312 ft 386 kts 175°
2026-04-20 12:56 31.72081 -8.12273 30968 ft 383 kts 175°
2026-04-20 12:56 31.69459 -8.11793 30629 ft 381 kts 175°
2026-04-20 12:56 31.66847 -8.11314 30286 ft 378 kts 175°
2026-04-20 12:57 31.64256 -8.10861 29929 ft 374 kts 179°
2026-04-20 12:57 31.61713 -8.11088 29551 ft 362 kts 200°
2026-04-20 12:57 31.59429 -8.12211 29166 ft 353 kts 215°
2026-04-20 12:57 31.57506 -8.13952 28798 ft 347 kts 222°
2026-04-20 12:58 31.55689 -8.15797 28409 ft 344 kts 223°
2026-04-20 12:58 31.53900 -8.17641 28065 ft 341 kts 223°
2026-04-20 12:58 31.52119 -8.19471 27697 ft 339 kts 223°
2026-04-20 12:58 31.50351 -8.21276 27347 ft 336 kts 223°
2026-04-20 12:59 31.49183 -8.22462 27117 ft 335 kts 223°
2026-04-20 12:59 31.47427 -8.24238 26785 ft 332 kts 222°
2026-04-20 12:59 31.45683 -8.25995 26446 ft 330 kts 222°
2026-04-20 12:59 31.43947 -8.27740 26116 ft 328 kts 222°
2026-04-20 13:00 31.42220 -8.29474 25783 ft 326 kts 222°
2026-04-20 13:00 31.40503 -8.31196 25452 ft 324 kts 222°
2026-04-20 13:00 31.38794 -8.32908 25124 ft 323 kts 221°
2026-04-20 13:00 31.37091 -8.34614 24788 ft 321 kts 221°
2026-04-20 13:01 31.35397 -8.36311 24496 ft 320 kts 221°
2026-04-20 13:01 31.33707 -8.38001 24164 ft 319 kts 221°
2026-04-20 13:01 31.32024 -8.39685 23831 ft 319 kts 221°
2026-04-20 13:01 31.30339 -8.41370 23499 ft 318 kts 221°
2026-04-20 13:02 31.28660 -8.43047 23116 ft 317 kts 221°
2026-04-20 13:02 31.26991 -8.44715 22767 ft 315 kts 221°
2026-04-20 13:02 31.25326 -8.46376 22426 ft 313 kts 221°
2026-04-20 13:02 31.23672 -8.48025 22135 ft 311 kts 221°
2026-04-20 13:03 31.22041 -8.49659 21724 ft 311 kts 221°
2026-04-20 13:03 31.20402 -8.51314 21387 ft 310 kts 221°
2026-04-20 13:03 31.18777 -8.52955 21051 ft 308 kts 221°
2026-04-20 13:03 31.17165 -8.54584 20733 ft 306 kts 221°
2026-04-20 13:04 31.15559 -8.56206 20420 ft 303 kts 221°
2026-04-20 13:04 31.13963 -8.57815 20101 ft 302 kts 221°
2026-04-20 13:04 31.12397 -8.59395 19824 ft 300 kts 221°
2026-04-20 13:04 31.10822 -8.60981 19531 ft 298 kts 221°
2026-04-20 13:05 31.09255 -8.62560 19221 ft 297 kts 221°
2026-04-20 13:05 31.07692 -8.64134 18914 ft 296 kts 221°
2026-04-20 13:05 31.06139 -8.65697 18607 ft 295 kts 221°
2026-04-20 13:05 31.04587 -8.67257 18309 ft 294 kts 221°
2026-04-20 13:06 31.03038 -8.68815 17970 ft 293 kts 221°
2026-04-20 13:06 31.01492 -8.70368 17642 ft 292 kts 221°
2026-04-20 13:06 30.99958 -8.71909 17324 ft 291 kts 221°
2026-04-20 13:06 30.98431 -8.73442 17026 ft 288 kts 221°
2026-04-20 13:07 30.96922 -8.74958 16754 ft 285 kts 221°
2026-04-20 13:07 30.95422 -8.76463 16443 ft 284 kts 221°
2026-04-20 13:07 30.93919 -8.77971 16144 ft 286 kts 221°
2026-04-20 13:07 30.92400 -8.79494 15839 ft 289 kts 220°
2026-04-20 13:08 30.90863 -8.81032 15532 ft 293 kts 220°
2026-04-20 13:08 30.89311 -8.82583 15244 ft 296 kts 220°
2026-04-20 13:08 30.87732 -8.84139 14896 ft 297 kts 220°
2026-04-20 13:08 30.86147 -8.85687 14580 ft 297 kts 219°
2026-04-20 13:09 30.84563 -8.87234 14267 ft 296 kts 219°
2026-04-20 13:09 30.82991 -8.88770 13950 ft 294 kts 219°
2026-04-20 13:09 30.81431 -8.90293 13623 ft 292 kts 219°
2026-04-20 13:09 30.79883 -8.91805 13312 ft 289 kts 219°
2026-04-20 13:10 30.78348 -8.93305 12987 ft 287 kts 218°
2026-04-20 13:10 30.76817 -8.94800 12677 ft 286 kts 218°
2026-04-20 13:10 30.75293 -8.96287 12363 ft 286 kts 218°
2026-04-20 13:10 30.73784 -8.97759 12043 ft 287 kts 218°
2026-04-20 13:11 30.72259 -8.99247 11739 ft 287 kts 218°
2026-04-20 13:11 30.70730 -9.00739 11445 ft 286 kts 217°
2026-04-20 13:11 30.69209 -9.02222 11115 ft 285 kts 217°
2026-04-20 13:11 30.67703 -9.03690 10898 ft 281 kts 217°
2026-04-20 13:12 30.66203 -9.05152 10656 ft 282 kts 217°
2026-04-20 13:12 30.64700 -9.06613 10433 ft 282 kts 217°
2026-04-20 13:12 30.63195 -9.08079 10168 ft 283 kts 219°
2026-04-20 13:12 30.61687 -9.09553 9919 ft 284 kts 218°
2026-04-20 13:13 30.60177 -9.11030 9679 ft 283 kts 218°
2026-04-20 13:13 30.58682 -9.12490 9417 ft 280 kts 218°
2026-04-20 13:13 30.57202 -9.13937 9158 ft 277 kts 218°
2026-04-20 13:13 30.55738 -9.15367 8903 ft 274 kts 218°
2026-04-20 13:14 30.54281 -9.16789 8650 ft 271 kts 218°
2026-04-20 13:14 30.52843 -9.18191 8396 ft 269 kts 218°
2026-04-20 13:14 30.51413 -9.19584 8148 ft 268 kts 218°
2026-04-20 13:14 30.49985 -9.20979 7909 ft 269 kts 218°
2026-04-20 13:15 30.48553 -9.22379 7673 ft 267 kts 218°
2026-04-20 13:15 30.47135 -9.23765 7423 ft 266 kts 218°
2026-04-20 13:15 30.45725 -9.25144 7166 ft 265 kts 218°
2026-04-20 13:15 30.44321 -9.26516 6938 ft 263 kts 218°
2026-04-20 13:16 30.42919 -9.27884 6696 ft 263 kts 218°
2026-04-20 13:16 30.41523 -9.29248 6458 ft 262 kts 218°
2026-04-20 13:16 30.40132 -9.30606 6208 ft 261 kts 218°
2026-04-20 13:16 30.38744 -9.31960 5980 ft 260 kts 218°
2026-04-20 13:17 30.37362 -9.33308 5732 ft 259 kts 218°
2026-04-20 13:17 30.35983 -9.34652 5483 ft 259 kts 218°
2026-04-20 13:17 30.34610 -9.35989 5327 ft 254 kts 218°
2026-04-20 13:17 30.33274 -9.37292 5331 ft 250 kts 218°
2026-04-20 13:18 30.32183 -9.38870 5324 ft 258 kts 242°
2026-04-20 13:18 30.31599 -9.40837 5352 ft 265 kts 253°
2026-04-20 13:18 30.31175 -9.42923 5347 ft 267 kts 255°
2026-04-20 13:18 30.30780 -9.45006 5338 ft 264 kts 255°
2026-04-20 13:19 30.30380 -9.47096 5101 ft 265 kts 253°
2026-04-20 13:19 30.29981 -9.49143 4992 ft 257 kts 252°
2026-04-20 13:19 30.29586 -9.51127 4871 ft 250 kts 252°
2026-04-20 13:19 30.29196 -9.53060 4759 ft 242 kts 252°
2026-04-20 13:20 30.28815 -9.54931 4655 ft 235 kts 252°
2026-04-20 13:20 30.28446 -9.56742 4505 ft 230 kts 252°
2026-04-20 13:20 30.28078 -9.58536 4275 ft 228 kts 252°
2026-04-20 13:20 30.27920 -9.60360 4015 ft 234 kts 279°
2026-04-20 13:21 30.28779 -9.61952 3783 ft 241 kts 322°
2026-04-20 13:21 30.30363 -9.62553 3548 ft 245 kts
2026-04-20 13:21 30.31917 -9.61890 3298 ft 240 kts 46°
2026-04-20 13:21 30.32727 -9.60295 3050 ft 228 kts 87°
2026-04-20 13:22 30.32751 -9.58496 2826 ft 223 kts 97°
2026-04-20 13:22 30.32666 -9.56714 2584 ft 219 kts 98°
2026-04-20 13:22 30.32605 -9.55035 2521 ft 198 kts 96°
2026-04-20 13:22 30.32585 -9.53471 2165 ft 196 kts 95°
2026-04-20 13:23 30.32549 -9.51896 1822 ft 192 kts 96°
2026-04-20 13:23 30.32503 -9.50371 1487 ft 187 kts 96°
2026-04-20 13:23 30.32466 -9.48902 1280 ft 175 kts 96°
2026-04-20 13:23 30.32428 -9.47534 1066 ft 165 kts 96°
2026-04-20 13:24 30.32392 -9.46252 869 ft 157 kts 96°
2026-04-20 13:24 30.32358 -9.45024 689 ft 146 kts 95°
2026-04-20 13:24 30.32326 -9.43846 464 ft 150 kts 97°
2026-04-20 13:24 30.32298 -9.42649 243 ft 145 kts 95°
2026-04-20 13:25 30.32277 -9.41606 230 ft 104 kts 92°
2026-04-20 13:25 30.32260 -9.41008 230 ft 52 kts 92°
2026-04-20 13:25 30.32254 -9.40732 230 ft 14 kts 83°
2026-04-20 13:25 30.32315 -9.40675 230 ft 12 kts
2026-04-20 13:26 30.32396 -9.40673 230 ft 12 kts
2026-04-20 13:26 30.32477 -9.40670 230 ft 11 kts
2026-04-20 13:26 30.32553 -9.40668 230 ft 11 kts
2026-04-20 13:26 30.32630 -9.40667 230 ft 11 kts
2026-04-20 13:27 30.32702 -9.40665 230 ft 10 kts
2026-04-20 13:27 30.32772 -9.40674 230 ft 10 kts 333°
2026-04-20 13:27 30.32802 -9.40741 230 ft 10 kts 271°
2026-04-20 13:27 30.32804 -9.40820 230 ft 10 kts 271°
2026-04-20 13:28 30.32805 -9.40895 230 ft 9 kts 271°
2026-04-20 13:28 30.32807 -9.40966 230 ft 7 kts 271°
2026-04-20 13:28 30.32831 -9.40999 230 ft 6 kts 355°
2026-04-20 13:28 30.32870 -9.40998 230 ft 4 kts
2026-04-20 13:29 30.32881 -9.40997 230 ft 0 kts